GW2521 Weather Reports


time (UTC)temp
F
wind
direction
speed
knots
gust
knots
rain 1hr
in
rain 24hr
in
rain mn
in
humidity
%
barometer
mb
20260903010700 84 171 2.6 4.3 0.00 0.00 0.00 77 1015.3
20260903010159 84 182 1.7 1.7 0.00 0.00 0.00 77 1015.2
20260903005659 84 193 1.7 1.7 0.00 0.00 0.00 78 1015.1
20260903005154 84 191 2.6 2.6 0.00 0.00 0.00 77 1015.0
20260903004649 84 207 2.6 2.6 0.00 0.00 0.00 77 1015.0
20260903004144 84 168 2.6 2.6 0.00 0.00 0.00 77 1015.1
20260903003640 84 207 2.6 4.3 0.00 0.00 0.00 77 1015.2
20260903003134 84 190 2.6 2.6 0.00 0.00 0.00 76 1014.8
20260903002630 85 197 2.6 2.6 0.00 0.00 0.00 76 1015.1
20260903002124 85 181 1.7 1.7 0.00 0.00 0.00 75 1015.0
20260903001619 86 194 2.6 2.6 0.00 0.00 0.00 74 1015.2
20260903001118 86 168 1.7 1.7 0.00 0.00 0.00 73 1015.0
20260903000615 86 181 1.7 1.7 0.00 0.00 0.00 73 1015.2
20260903000114 86 195 0.9 1.7 0.00 0.00 0.00 73 1015.1
20260902235612 86 193 1.7 1.7 0.00 0.00 0.00 73 1015.2
20260902235108 87 166 0.9 0.9 0.00 0.00 0.00 72 1015.2
20260902234602 87 166 0.9 0.9 0.00 0.00 0.00 72 1015.4
20260902234100 87 195 1.7 1.7 0.00 0.00 0.00 72 1015.0
20260902233555 88 194 2.6 2.6 0.00 0.00 0.00 71 1015.3
20260902233050 88 233 2.6 2.6 0.00 0.00 0.00 71 1015.3
20260902232550 88 181 2.6 2.6 0.00 0.00 0.00 70 1015.1
20260902232044 89 207 0.9 1.7 0.00 0.00 0.00 70 1015.2
20260902231538 89 209 1.7 1.7 0.00 0.00 0.00 69 1015.3
20260902231032 89 200 2.6 2.6 0.00 0.00 0.00 69 1015.1
20260902230527 90 199 2.6 4.3 0.00 0.00 0.00 68 1015.2
20260902230026 90 220 1.7 1.7 0.00 0.00 0.00 68 1014.9
20260902225522 91 188 2.6 2.6 0.00 0.00 0.00 66 1015.2
20260902225021 91 221 3.5 4.3 0.00 0.00 0.00 65 1015.2
20260902224520 91 212 1.7 2.6 0.00 0.00 0.00 64 1015.1
20260902224016 91 183 2.6 2.6 0.00 0.00 0.00 64 1015.1
20260902223512 92 218 2.6 4.3 0.00 0.00 0.00 63 1015.0
20260902223011 91 156 2.6 4.3 0.00 0.00 0.00 65 1015.1
20260902222510 92 205 4.3 4.3 0.00 0.00 0.00 62 1015.2
20260902222009 92 193 1.7 2.6 0.00 0.00 0.00 62 1015.1
20260902221509 92 211 1.7 1.7 0.00 0.00 0.00 63 1015.3
20260902221000 92 239 3.5 4.3 0.00 0.00 0.00 60 1015.2
20260902220500 92 246 2.6 2.6 0.00 0.00 0.00 60 1015.2
20260902215954 92 188 1.7 1.7 0.00 0.00 0.00 64 1015.2
20260902215450 92 202 3.5 4.3 0.00 0.00 0.00 63 1014.9
20260902214946 92 179 4.3 6.1 0.00 0.00 0.00 61 1015.4
20260902214444 92 192 2.6 2.6 0.00 0.00 0.00 60 1015.2
20260902213938 92 213 2.6 2.6 0.00 0.00 0.00 60 1015.1
20260902213435 92 228 2.6 4.3 0.00 0.00 0.00 60 1015.2
20260902212933 92 190 4.3 5.2 0.00 0.00 0.00 60 1015.2
20260902212430 93 68 0.9 0.9 0.00 0.00 0.00 59 1015.3
20260902211925 93 274 2.6 2.6 0.00 0.00 0.00 58 1015.3
20260902211416 94 329 1.7 1.7 0.00 0.00 0.00 57 1015.5
20260902210911 93 205 3.5 5.2 0.00 0.00 0.00 57 1015.2
20260902210410 93 295 3.5 4.3 0.00 0.00 0.00 59 1015.2
20260902205908 93 199 5.2 6.1 0.00 0.00 0.00 61 1015.2
20260902205357 93 228 4.3 5.2 0.00 0.00 0.00 57 1015.2
20260902204853 93 230 4.3 6.1 0.00 0.00 0.00 59 1015.4
20260902204347 93 228 2.6 2.6 0.00 0.00 0.00 59 1015.3
20260902203843 93 190 4.3 6.1 0.00 0.00 0.00 58 1015.3
20260902203338 93 304 2.6 2.6 0.00 0.00 0.00 58 1015.5
20260902202838 93 254 5.2 6.1 0.00 0.00 0.00 58 1015.3
20260902202328 93 181 5.2 6.1 0.00 0.00 0.00 58 1015.2
20260902201824 93 198 7.0 7.8 0.00 0.00 0.00 56 1015.4
20260902201319 93 225 2.6 4.3 0.00 0.00 0.00 58 1015.6
20260902200814 93 208 5.2 7.0 0.00 0.00 0.00 59 1015.6
20260902200308 92 202 4.3 5.2 0.00 0.00 0.00 60 1015.6
20260902195804 93 203 4.3 6.1 0.00 0.00 0.00 59 1015.5
20260902195306 92 206 4.3 6.1 0.00 0.00 0.00 58 1015.8
20260902194758 92 173 4.3 7.0 0.00 0.00 0.00 61 1015.8
20260902194253 93 214 4.3 5.2 0.00 0.00 0.00 59 1015.9
20260902193749 93 191 4.3 7.0 0.00 0.00 0.00 61 1016.0
20260902193244 93 219 7.0 8.7 0.00 0.00 0.00 57 1015.8
20260902192743 92 183 3.5 5.2 0.00 0.00 0.00 59 1016.1
20260902192242 92 192 2.6 4.3 0.00 0.00 0.00 62 1016.0
20260902191742 92 225 6.1 7.0 0.00 0.00 0.00 59 1016.1
20260902191237 92 196 5.2 7.0 0.00 0.00 0.00 60 1016.5
20260902190732 92 197 7.8 8.7 0.00 0.00 0.00 57 1016.2
20260902190232 92 197 7.0 8.7 0.00 0.00 0.00 59 1016.3
20260902185728 92 195 5.2 6.1 0.00 0.00 0.00 61 1016.4
20260902185223 93 192 5.2 6.1 0.00 0.00 0.00 60 1016.2
20260902184719 92 261 2.6 2.6 0.00 0.00 0.00 61 1016.3
20260902184215 92 210 7.0 7.8 0.00 0.00 0.00 60 1016.2
20260902183710 92 193 3.5 5.2 0.00 0.00 0.00 59 1016.3
20260902183206 92 237 5.2 6.1 0.00 0.00 0.00 57 1016.3
20260902182702 92 209 5.2 5.2 0.00 0.00 0.00 62 1016.3
20260902182158 91 181 6.1 7.0 0.00 0.00 0.00 61 1016.7
20260902181654 91 227 6.1 8.7 0.00 0.00 0.00 61 1016.5
20260902181153 92 187 4.3 7.0 0.00 0.00 0.00 61 1016.6
20260902180648 91 227 3.5 4.3 0.00 0.00 0.00 59 1016.6
20260902180143 91 158 4.3 5.2 0.00 0.00 0.00 62 1016.6
20260902175638 91 188 3.5 5.2 0.00 0.00 0.00 63 1016.6
20260902175134 91 251 3.5 4.3 0.00 0.00 0.00 60 1016.6
20260902174630 91 188 4.3 7.0 0.00 0.00 0.00 62 1016.9
20260902174125 91 233 3.5 4.3 0.00 0.00 0.00 67 1017.1
20260902173620 91 115 1.7 1.7 0.00 0.00 0.00 67 1016.9
20260902173116 91 232 3.5 4.3 0.00 0.00 0.00 68 1017.1
20260902172615 90 195 0.9 1.7 0.00 0.00 0.00 65 1017.3
20260902172109 90 177 2.6 4.3 0.00 0.00 0.00 65 1016.9
20260902171605 90 208 1.7 1.7 0.00 0.00 0.00 65 1017.2
20260902171101 89 218 4.3 5.2 0.00 0.00 0.00 64 1017.4
20260902170556 90 190 5.2 6.1 0.00 0.00 0.00 66 1016.9
20260902170052 89 202 5.2 5.2 0.00 0.00 0.00 67 1017.4
20260902165551 90 226 4.3 5.2 0.00 0.00 0.00 67 1017.3
20260902165046 89 188 4.3 5.2 0.00 0.00 0.00 69 1017.5
20260902164541 89 220 4.3 7.0 0.00 0.00 0.00 68 1017.5
20260902164040 89 183 3.5 4.3 0.00 0.00 0.00 71 1017.3
20260902163536 89 193 2.6 4.3 0.00 0.00 0.00 70 1017.6
20260902163033 89 193 4.3 5.2 0.00 0.00 0.00 68 1017.7
20260902162528 89 195 3.5 5.2 0.00 0.00 0.00 67 1017.5
20260902162023 89 206 2.6 2.6 0.00 0.00 0.00 68 1017.7
20260902161518 89 111 1.7 2.6 0.00 0.00 0.00 65 1017.2
20260902161014 89 181 2.6 4.3 0.00 0.00 0.00 64 1017.6
20260902160510 89 173 2.6 2.6 0.00 0.00 0.00 67 1017.7
20260902160010 89 207 3.5 4.3 0.00 0.00 0.00 68 1017.7
20260902155503 89 194 0.9 0.9 0.00 0.00 0.00 66 1017.8
20260902155002 89 218 3.5 5.2 0.00 0.00 0.00 64 1017.8
20260902154457 88 309 2.6 2.6 0.00 0.00 0.00 67 1017.7
20260902153952 87 297 1.7 2.6 0.00 0.00 0.00 69 1017.7
20260902153450 87 254 4.3 5.2 0.00 0.00 0.00 67 1017.6
20260902152946 87 166 2.6 2.6 0.00 0.00 0.00 70 1017.8
20260902152441 87 354 0.9 0.9 0.00 0.00 0.00 68 1017.9
20260902151936 87 187 0.9 0.9 0.00 0.00 0.00 67 1017.6
20260902151433 87 124 1.7 1.7 0.00 0.00 0.00 68 1017.3
20260902150926 87 167 2.6 2.6 0.00 0.00 0.00 68 1017.8
20260902150422 87 106 0.0 0.9 0.00 0.00 0.00 68 1017.7
20260902145922 86 172 1.7 2.6 0.00 0.00 0.00 68 1017.6
20260902145418 86 228 0.9 1.7 0.00 0.00 0.00 68 1017.6
20260902144912 86 220 1.7 4.3 0.00 0.00 0.00 69 1017.6
20260902144408 86 155 1.7 1.7 0.00 0.00 0.00 71 1017.7
20260902143903 85 82 1.7 1.7 0.00 0.00 0.00 71 1017.3
20260902143358 85 202 2.6 2.6 0.00 0.00 0.00 72 1017.5
20260902142854 84 215 3.5 5.2 0.00 0.00 0.00 71 1017.4
20260902142349 84 187 3.5 4.3 0.00 0.00 0.00 71 1017.4
20260902141844 84 211 2.6 2.6 0.00 0.00 0.00 72 1017.4
20260902141339 84 238 1.7 4.3 0.00 0.00 0.00 71 1017.3
20260902140833 84 102 0.9 0.9 0.00 0.00 0.00 74 1017.5
20260902140329 83 170 2.6 2.6 0.00 0.00 0.00 73 1017.5
20260902135828 83 134 1.7 1.7 0.00 0.00 0.00 75 1017.5
20260902135324 83 171 1.7 1.7 0.00 0.00 0.00 75 1017.6
20260902134823 82 211 1.7 1.7 0.00 0.00 0.00 73 1017.7
20260902134318 82 205 0.9 1.7 0.00 0.00 0.00 75 1017.8
20260902133813 81 283 1.7 2.6 0.00 0.00 0.00 76 1017.7
20260902133308 81 199 2.6 2.6 0.00 0.00 0.00 77 1017.6
20260902132803 81 302 1.7 1.7 0.00 0.00 0.00 77 1017.7
20260902132258 80 189 2.6 2.6 0.00 0.00 0.00 78 1017.7
20260902131754 80 273 1.7 2.6 0.00 0.00 0.00 79 1017.8
20260902131250 79 207 0.9 0.9 0.00 0.00 0.00 79 1017.7
20260902130750 79 190 2.6 2.6 0.00 0.00 0.00 81 1017.8
20260902130246 79 132 1.7 1.7 0.00 0.00 0.00 81 1017.5
20260902125740 78 181 2.6 2.6 0.00 0.00 0.00 81 1017.7
20260902125236 78 220 2.6 2.6 0.00 0.00 0.00 81 1017.9
20260902124733 77 170 0.9 0.9 0.00 0.00 0.00 83 1017.9
20260902124228 77 187 0.9 0.9 0.00 0.00 0.00 83 1017.8
20260902123723 76 187 2.6 2.6 0.00 0.00 0.00 85 1017.8
20260902123219 76 203 2.6 2.6 0.00 0.00 0.00 86 1017.8
20260902122718 76 201 1.7 1.7 0.00 0.00 0.00 86 1017.9
20260902122213 75 179 1.7 1.7 0.00 0.00 0.00 86 1017.9
20260902121708 75 184 2.6 2.6 0.00 0.00 0.00 87 1017.8
20260902121203 75 186 0.9 0.9 0.00 0.00 0.00 88 1017.6
20260902120659 74 175 1.7 2.6 0.00 0.00 0.00 88 1017.8
20260902120155 74 188 2.6 2.6 0.00 0.00 0.00 89 1017.6
20260902115654 74 187 1.7 1.7 0.00 0.00 0.00 89 1017.8
20260902115151 74 164 0.9 0.9 0.00 0.00 0.00 90 1017.7
20260902114647 73 181 1.7 1.7 0.00 0.00 0.00 90 1017.6
20260902114142 73 128 0.9 0.9 0.00 0.00 0.00 91 1017.5
20260902113637 73 129 0.0 0.0 0.00 0.00 0.00 92 1017.5
20260902113132 72 117 0.0 0.0 0.00 0.00 0.00 92 1017.6
20260902112626 72 117 0.0 0.0 0.00 0.00 0.00 92 1017.6
20260902112124 72 112 0.0 0.0 0.00 0.00 0.00 92 1017.7
20260902111619 72 103 0.0 0.0 0.00 0.00 0.00 92 1017.6
20260902111115 72 103 0.0 0.0 0.00 0.00 0.00 91 1017.4
20260902110605 73 102 0.0 0.0 0.00 0.00 0.00 91 1017.6
20260902110101 73 112 0.0 0.0 0.00 0.00 0.00 91 1017.3
20260902105555 73 104 0.0 0.0 0.00 0.00 0.00 91 1017.2
20260902105054 73 147 0.0 0.0 0.00 0.00 0.00 91 1017.2
20260902104550 73 107 0.9 0.9 0.00 0.00 0.00 91 1017.5
20260902104045 73 178 0.9 0.9 0.00 0.00 0.00 91 1017.1
20260902103540 73 112 0.0 0.9 0.00 0.00 0.00 91 1017.3
20260902103036 73 141 0.9 0.9 0.00 0.00 0.00 92 1017.3
20260902102532 73 147 0.9 0.9 0.00 0.00 0.00 91 1017.4
20260902102029 73 129 0.0 0.0 0.00 0.00 0.00 91 1017.2
20260902101524 73 96 0.0 0.0 0.00 0.00 0.00 92 1017.1
20260902101023 73 95 0.0 0.0 0.00 0.00 0.00 92 1016.9
20260902100518 73 104 0.0 0.0 0.00 0.00 0.00 92 1017.1
20260902100018 73 93 0.0 0.0 0.00 0.00 0.00 92 1016.9
20260902095517 73 99 0.0 0.0 0.00 0.00 0.00 91 1016.8
20260902095016 74 102 0.0 0.0 0.00 0.00 0.00 91 1016.8
20260902094512 74 115 0.0 0.0 0.00 0.00 0.00 91 1016.8
20260902094008 74 105 0.0 0.0 0.00 0.00 0.00 91 1016.9
20260902093502 74 113 0.0 0.9 0.00 0.00 0.00 91 1016.6
20260902093001 74 111 0.0 0.0 0.00 0.00 0.00 92 1016.8
20260902092457 74 112 0.0 0.0 0.00 0.00 0.00 91 1016.8
20260902091957 74 128 0.0 0.0 0.00 0.00 0.00 91 1016.8
20260902091452 74 114 0.0 0.0 0.00 0.00 0.00 91 1016.5
20260902090948 75 101 0.0 0.0 0.00 0.00 0.00 91 1016.7
20260902090444 75 114 0.0 0.9 0.00 0.00 0.00 91 1016.5
20260902085942 75 95 0.0 0.0 0.00 0.00 0.00 91 1016.6
20260902085438 75 109 0.0 0.0 0.00 0.00 0.00 90 1016.6
20260902084933 75 128 0.0 0.0 0.00 0.00 0.00 90 1016.7
20260902084429 75 170 0.9 0.9 0.00 0.00 0.00 90 1016.7
20260902083924 75 108 0.0 0.0 0.00 0.00 0.00 90 1016.8
20260902083419 76 124 0.0 0.0 0.00 0.00 0.00 89 1016.7
20260902082919 76 162 0.9 0.9 0.00 0.00 0.00 89 1016.8
20260902082414 76 146 0.9 0.9 0.00 0.00 0.00 88 1016.6
20260902081911 76 108 0.0 0.0 0.00 0.00 0.00 88 1016.7
20260902081407 77 145 0.9 0.9 0.00 0.00 0.00 88 1016.5
20260902080902 77 325 1.7 1.7 0.00 0.00 0.00 88 1016.6
20260902080358 76 216 3.5 4.3 0.00 0.00 0.00 88 1016.8
20260902075857 77 170 0.9 0.9 0.00 0.00 0.00 88 1016.8
20260902075354 77 142 1.7 1.7 0.00 0.00 0.00 88 1016.5
20260902074849 77 164 0.9 0.9 0.00 0.00 0.00 87 1016.5
20260902074344 77 188 0.9 1.7 0.00 0.00 0.00 88 1016.5
20260902073839 77 183 1.7 1.7 0.00 0.00 0.00 88 1016.6
20260902073336 77 108 0.9 1.7 0.00 0.00 0.00 88 1016.4
20260902072831 77 110 0.9 0.9 0.00 0.00 0.00 88 1016.5
20260902072327 77 152 0.0 0.0 0.00 0.00 0.00 88 1016.7
20260902071823 77 111 0.0 0.0 0.00 0.00 0.00 88 1016.7
20260902071317 77 196 0.0 0.9 0.00 0.00 0.00 88 1016.5
20260902070814 77 170 1.7 1.7 0.00 0.00 0.00 89 1016.5
20260902070314 77 190 0.9 1.7 0.00 0.00 0.00 89 1016.5
20260902065812 77 208 0.9 1.7 0.00 0.00 0.00 89 1016.5
20260902065307 77 113 0.9 0.9 0.00 0.00 0.00 89 1016.5
20260902064803 77 185 0.9 1.7 0.00 0.00 0.00 89 1016.4
20260902064300 77 99 0.0 0.0 0.00 0.00 0.00 89 1016.2
20260902063755 77 167 0.9 1.7 0.00 0.00 0.00 89 1016.4
20260902063249 77 209 0.9 0.9 0.00 0.00 0.00 89 1016.8
20260902062743 77 156 0.9 1.7 0.00 0.00 0.00 89 1016.7
20260902062238 76 185 1.7 1.7 0.00 0.00 0.00 91 1016.4
20260902061736 75 151 0.0 0.0 0.00 0.00 0.00 93 1016.6
20260902061232 75 111 0.0 0.0 0.00 0.00 0.00 93 1016.6
20260902060729 75 97 0.0 0.0 0.00 0.00 0.00 92 1016.6
20260902060225 75 97 0.0 0.0 0.00 0.00 0.00 91 1016.6
20260902055720 76 108 0.0 0.0 0.00 0.00 0.00 91 1016.7
20260902055216 77 89 0.0 0.0 0.00 0.00 0.00 91 1016.7
20260902054711 77 90 0.0 0.0 0.00 0.00 0.00 90 1016.7
20260902054207 77 90 0.0 0.0 0.00 0.00 0.00 89 1016.9
20260902053702 78 92 0.0 0.0 0.00 0.00 0.00 88 1016.7
20260902053202 78 85 0.0 0.0 0.00 0.00 0.00 88 1016.8
20260902052701 78 100 0.0 0.0 0.00 0.00 0.00 87 1016.4
20260902052156 79 105 0.0 0.0 0.00 0.00 0.00 87 1016.8
20260902051655 79 176 0.9 0.9 0.00 0.00 0.00 87 1016.7
20260902051150 79 223 1.7 1.7 0.00 0.00 0.00 86 1016.7
20260902050645 79 122 0.9 0.9 0.00 0.00 0.00 86 1016.5
20260902050141 79 186 0.9 1.7 0.00 0.00 0.00 86 1016.5
20260902045635 80 169 2.6 2.6 0.00 0.00 0.00 86 1017.1
20260902045131 79 159 2.6 2.6 0.00 0.00 0.00 86 1016.7
20260902044626 79 235 0.9 1.7 0.00 0.00 0.00 86 1016.5
20260902044123 79 204 1.7 1.7 0.00 0.00 0.00 87 1016.6
20260902043617 79 172 1.7 1.7 0.00 0.00 0.00 87 1016.7
20260902043112 79 198 1.7 2.6 0.00 0.00 0.00 87 1016.6
20260902042611 79 175 0.9 0.9 0.00 0.00 0.00 88 1016.7
20260902042107 78 162 0.0 0.0 0.00 0.00 0.00 88 1016.5
20260902041606 78 228 2.6 2.6 0.00 0.00 0.00 89 1016.7
20260902041101 78 92 0.0 0.0 0.00 0.00 0.00 90 1016.7
20260902040555 77 172 0.0 0.9 0.00 0.00 0.00 90 1016.6
20260902040051 77 8 0.0 0.9 0.00 0.00 0.00 90 1016.5
20260902035549 78 92 0.0 0.0 0.00 0.01 0.01 89 1016.7
20260902035045 78 82 0.0 0.0 0.00 0.01 0.01 88 1016.7
20260902034544 79 139 0.0 0.0 0.00 0.01 0.01 87 1016.5
20260902034043 79 138 0.0 0.0 0.00 0.01 0.01 87 1016.3
20260902033543 79 115 0.0 0.0 0.00 0.01 0.01 87 1016.5
20260902033037 80 105 0.0 0.0 0.00 0.01 0.01 87 1016.5
20260902032536 80 144 0.0 0.9 0.00 0.01 0.01 86 1016.5
20260902032031 80 149 0.9 1.7 0.00 0.01 0.01 86 1016.3
20260902031526 80 167 0.9 0.9 0.00 0.01 0.01 86 1016.5
20260902031022 80 183 0.9 1.7 0.00 0.01 0.01 86 1016.6
20260902030517 80 209 0.9 0.9 0.00 0.01 0.01 86 1016.5
20260902030016 80 102 0.0 0.9 0.00 0.01 0.01 87 1016.5
20260902025511 80 197 0.9 0.9 0.00 0.01 0.01 87 1016.4
20260902025006 80 107 0.0 0.0 0.00 0.01 0.01 88 1016.5
20260902024502 79 130 0.0 0.9 0.00 0.01 0.01 88 1016.3
20260902023955 79 132 0.0 0.9 0.00 0.01 0.01 89 1016.5
20260902023452 79 139 0.0 0.0 0.00 0.01 0.01 90 1016.3
20260902022951 79 179 0.0 0.0 0.00 0.01 0.01 90 1016.6
20260902022446 79 99 0.0 0.0 0.00 0.01 0.01 91 1016.5
20260902021942 78 99 0.0 0.0 0.00 0.01 0.01 92 1016.6
20260902021437 78 106 0.0 0.0 0.00 0.01 0.01 92 1016.6
20260902020932 78 119 0.0 0.0 0.00 0.01 0.01 92 1016.5
20260902020429 78 104 0.0 0.0 0.00 0.01 0.01 91 1016.5
20260902015924 78 90 0.0 0.0 0.00 0.01 0.01 90 1016.8
20260902015420 78 81 0.0 0.0 0.00 0.01 0.01 90 1016.6
20260902014915 79 83 0.0 0.0 0.00 0.01 0.01 89 1016.6
20260902014412 79 84 0.0 0.0 0.00 0.01 0.01 89 1016.7
20260902013910 80 106 0.0 0.0 0.00 0.01 0.01 90 1016.4
20260902013406 80 159 0.0 0.0 0.00 0.01 0.01 90 1016.7
20260902012902 80 158 0.0 0.0 0.00 0.01 0.01 90 1016.6
20260902012357 79 157 0.0 0.0 0.00 0.01 0.01 90 1016.3
20260902011852 79 150 0.0 0.0 0.00 0.01 0.01 90 1016.5
20260902011347 80 150 0.0 0.0 0.00 0.01 0.01 88 1016.5